Date String (YYYY-MM-DD hh:mm:ss) UTC,Instrument flags,Ambient pressure (hPa),Sample flow (lpm),Bypass flow (lpm),Sample temperature (°C),Ambient temperature (°C),ASC tube jacket temperature (°C),LED temperature (°C),Box temperature (°C),Sample RH (%),Span deviation,Mass concentration (μg/m³),Mass concentration (μg/m³),Mass concentration (μg/m³)
DateTimeUTC,F1_M11,P_M11,Q1_M11,Q2_M11,T1_M11,T2_M11,T3_M11,T4_M11,T5_M11,U1_M11,ZSPAN_M11,X0_M11,X2_M11,X1_M11
2023-02-13 13:00:00,,0819.9,5.00,0.00,22.6,21.0,00.0,31.4,24.3,07.1,0000.0,0004.32,0002.17,0001.68
2023-02-13 13:01:00,,0819.9,4.99,0.00,22.5,20.9,00.0,31.4,24.3,07.1,0000.0,0004.66,0002.15,0001.65
2023-02-13 13:02:00,,0819.9,5.00,0.00,22.5,20.9,00.0,31.4,24.3,07.0,0000.0,0005.11,0002.12,0001.62
2023-02-13 13:03:00,,0819.9,5.01,0.00,22.5,20.8,00.0,31.4,24.2,07.0,0000.0,0005.17,0002.10,0001.60
2023-02-13 13:04:00,,0819.9,5.00,0.00,22.5,20.8,00.0,31.4,24.2,07.1,0000.0,0005.24,0002.06,0001.55
2023-02-13 13:05:00,,0819.9,4.99,0.00,22.5,20.7,00.0,31.4,24.2,07.1,0000.0,0005.19,0002.03,0001.52
2023-02-13 13:06:00,,0819.9,5.01,0.00,22.4,20.7,00.0,31.3,24.2,07.0,0000.0,0005.12,0001.99,0001.49
2023-02-13 13:07:00,,0819.9,5.01,0.00,22.5,21.4,00.0,31.3,24.3,07.0,0000.0,0005.17,0001.99,0001.46
2023-02-13 13:08:00,,0819.9,5.04,0.00,22.6,22.6,00.0,31.3,24.6,07.1,0000.0,0005.34,0002.02,0001.45
2023-02-13 13:09:00,,0819.9,5.05,0.00,22.7,22.8,00.0,31.3,24.7,07.1,0000.0,0004.89,0002.00,0001.44
2023-02-13 13:10:00,,0819.9,4.97,0.00,22.7,22.4,00.0,31.4,24.6,07.2,0000.0,0004.28,0001.98,0001.45
2023-02-13 13:11:00,,0819.9,4.98,0.00,22.7,22.0,00.0,31.4,24.5,07.2,0000.0,0004.30,0001.99,0001.47
2023-02-13 13:12:00,,0819.9,5.02,0.00,22.7,21.8,00.0,31.4,24.5,07.2,0000.0,0004.09,0002.02,0001.50
2023-02-13 13:13:00,,0819.9,4.98,0.00,22.7,21.6,00.0,31.4,24.5,07.2,0000.0,0003.42,0002.04,0001.52
2023-02-13 13:14:00,,0820.0,5.02,0.00,22.6,21.4,00.0,31.4,24.4,07.0,0000.0,0003.39,0002.06,0001.54
2023-02-13 13:15:00,,0819.9,5.02,0.00,22.6,21.3,00.0,31.4,24.4,07.0,0000.0,0003.36,0002.09,0001.56
2023-02-13 13:16:00,,0819.9,5.01,0.00,22.6,21.2,00.0,31.4,24.4,07.0,0000.0,0003.28,0002.08,0001.58
2023-02-13 13:17:00,,0819.9,5.01,0.00,22.6,21.1,00.0,31.4,24.4,07.0,0000.0,0003.23,0002.08,0001.59
2023-02-13 13:18:00,,0820.0,4.99,0.00,22.6,21.0,00.0,31.4,24.3,07.1,0000.0,0003.26,0002.11,0001.61
2023-02-13 13:19:00,,0819.9,5.03,0.00,22.6,21.0,00.0,31.4,24.3,07.2,0000.0,0003.05,0002.07,0001.63
2023-02-13 13:20:00,,0819.9,4.99,0.00,22.5,20.9,00.0,31.4,24.3,07.2,0000.0,0003.08,0002.05,0001.62
2023-02-13 13:21:00,,0819.9,5.00,0.00,22.5,20.9,00.0,31.4,24.3,07.2,0000.0,0003.73,0002.06,0001.61
2023-02-13 13:22:00,,0819.9,5.01,0.00,22.5,20.8,00.0,31.4,24.3,07.4,0000.0,0004.51,0002.09,0001.61
2023-02-13 13:23:00,,0819.9,4.99,0.00,22.5,20.7,00.0,31.4,24.2,07.4,0000.0,0004.51,0002.09,0001.59
2023-02-13 13:24:00,,0819.9,5.01,0.00,22.5,20.6,00.0,31.4,24.2,07.4,0000.0,0004.52,0002.10,0001.60
2023-02-13 13:25:00,,0819.9,4.98,0.00,22.4,20.7,00.0,31.4,24.2,07.4,0000.0,0005.46,0002.11,0001.59
2023-02-13 13:26:00,,0820.0,5.04,0.00,22.5,21.7,00.0,31.3,24.4,07.3,0000.0,0006.32,0002.12,0001.58
2023-02-13 13:27:00,,0819.9,4.99,0.00,22.6,22.8,00.0,31.3,24.7,07.2,0000.0,0006.64,0002.18,0001.59
2023-02-13 13:28:00,,0820.0,4.98,0.00,22.7,23.3,00.0,31.3,24.8,07.1,0000.0,0008.05,0002.20,0001.58
2023-02-13 13:29:00,,0819.9,5.02,0.00,22.8,22.8,00.0,31.4,24.8,07.0,0000.0,0008.61,0002.27,0001.59
2023-02-13 13:30:00,,0819.9,5.01,0.00,22.8,22.4,00.0,31.4,24.7,07.0,0000.0,0008.84,0002.34,0001.58
2023-02-13 13:31:00,,0820.0,5.01,0.00,22.8,22.0,00.0,31.5,24.6,06.9,0000.0,0008.98,0002.42,0001.60
2023-02-13 13:32:00,,0819.9,5.00,0.00,22.8,21.8,00.0,31.5,24.6,06.9,0000.0,0009.18,0002.40,0001.60
2023-02-13 13:33:00,,0819.9,5.00,0.00,22.7,21.5,00.0,31.5,24.5,07.4,0000.0,0008.99,0002.40,0001.60
2023-02-13 13:34:00,,0819.9,5.01,0.00,22.6,21.0,00.0,31.5,24.3,07.4,0000.0,0009.06,0002.40,0001.59
2023-02-13 13:35:00,,0819.9,4.98,0.00,22.6,20.8,00.0,31.5,24.2,07.2,0000.0,0009.34,0002.40,0001.58
2023-02-13 13:36:00,,0819.9,4.99,0.00,22.5,20.8,00.0,31.5,24.2,07.2,0000.0,0009.10,0002.38,0001.58
2023-02-13 13:37:00,,0819.9,5.01,0.00,22.5,20.8,00.0,31.5,24.2,07.1,0000.0,0009.31,0002.36,0001.57
2023-02-13 13:38:00,,0819.9,5.01,0.00,22.5,20.7,00.0,31.4,24.2,07.1,0000.0,0009.23,0002.28,0001.55
2023-02-13 13:39:00,,0819.9,4.99,0.00,22.5,20.7,00.0,31.4,24.2,07.1,0000.0,0008.18,0002.26,0001.55
2023-02-13 13:40:00,,0819.9,5.01,0.00,22.5,20.7,00.0,31.4,24.2,07.1,0000.0,0007.52,0002.16,0001.53
2023-02-13 13:41:00,,0819.9,5.00,0.00,22.5,20.7,00.0,31.4,24.2,07.1,0000.0,0007.14,0002.11,0001.53
2023-02-13 13:42:00,,0819.9,5.01,0.00,22.4,20.7,00.0,31.4,24.2,07.1,0000.0,0006.96,0002.07,0001.54
2023-02-13 13:43:00,,0819.9,5.00,0.00,22.4,20.7,00.0,31.4,24.2,07.2,0000.0,0006.30,0002.10,0001.57
2023-02-13 13:44:00,,0819.8,5.00,0.00,22.4,20.7,00.0,31.4,24.2,07.2,0000.0,0005.70,0002.14,0001.62
2023-02-13 13:45:00,,0819.9,4.98,0.00,22.4,20.6,00.0,31.3,24.1,07.3,0000.0,0005.56,0002.19,0001.69
2023-02-13 13:46:00,,0819.9,5.02,0.00,22.3,20.4,00.0,31.3,24.0,07.3,0000.0,0005.09,0002.17,0001.71
2023-02-13 13:47:00,,0819.8,5.01,0.00,22.3,21.1,00.0,31.3,24.1,07.3,0000.0,0004.67,0002.20,0001.72
2023-02-13 13:48:00,,0819.9,5.04,0.00,22.5,22.2,00.0,31.2,24.4,07.3,0000.0,0003.46,0002.23,0001.77
2023-02-13 13:49:00,,0819.8,5.09,0.00,22.6,23.0,00.0,31.3,24.6,07.3,0000.0,0003.50,0002.33,0001.83
2023-02-13 13:50:00,,0819.8,5.02,0.00,22.6,22.7,00.0,31.3,24.6,07.3,0000.0,0003.60,0002.39,0001.90
2023-02-13 13:51:00,,0819.9,5.03,0.00,22.7,22.3,00.0,31.4,24.6,07.4,0000.0,0003.85,0002.52,0001.99
2023-02-13 13:52:00,,0819.9,5.01,0.00,22.6,22.0,00.0,31.4,24.5,07.4,0000.0,0004.11,0002.61,0002.06
2023-02-13 13:53:00,,0819.9,5.03,0.00,22.6,21.7,00.0,31.4,24.4,07.4,0000.0,0004.29,0002.67,0002.14
2023-02-13 13:54:00,,0819.9,4.99,0.00,22.6,21.3,00.0,31.4,24.3,07.5,0000.0,0004.44,0002.75,0002.18
2023-02-13 13:55:00,,0819.9,5.01,0.00,22.6,21.0,00.0,31.4,24.2,07.6,0000.0,0004.47,0002.80,0002.22
2023-02-13 13:56:00,,0819.8,5.01,0.00,22.5,20.9,00.0,31.4,24.2,07.7,0000.0,0004.51,0002.84,0002.27
2023-02-13 13:57:00,,0819.8,5.02,0.00,22.5,20.8,00.0,31.4,24.2,07.8,0000.0,0004.76,0003.00,0002.37
2023-02-13 13:58:00,,0819.7,5.02,0.00,22.5,20.7,00.0,31.4,24.2,07.7,0000.0,0004.91,0003.10,0002.48
2023-02-13 13:59:00,,0819.7,5.01,0.00,22.5,20.7,00.0,31.4,24.2,07.8,0000.0,0004.96,0003.18,0002.59
